Date String (YYYY-MM-DD hh:mm:ss) UTC,Instrument flags,absolute air pressure of the measurement (hPa),sample flow rate (lpm),inlet stack bypass flow (lpm),air temperature of the measurement (°C),ambient temperature measured by the external sensor (°C),aerosol sample conditioner tube jacket temperature (°C),OPC LED temperature (°C),internal box temperature (°C),relative humidity of the measurement (%),span deviation,mass concentration of particles derived from Lorenz-Mie calculation of OPC scattering (μg/m³),mass concentration of particles derived from Lorenz-Mie calculation of OPC scattering (μg/m³),mass concentration of particles derived from Lorenz-Mie calculation of OPC scattering (μg/m³)
DateTimeUTC,F1_M11,P_M11,Q1_M11,Q2_M11,T1_M11,T2_M11,T3_M11,T4_M11,T5_M11,U1_M11,ZSPAN_M11,X2_M11,X0_M11,X1_M11
2023-10-24 16:00:00,SystemResetWarning,0826.6,5.00,000.00,028.6,027.3,000.0,037.0,030.4,17.2,0000.0,0006.58,0027.48,0003.83
2023-10-24 16:01:00,SystemResetWarning,0826.6,5.01,000.00,028.7,027.3,000.0,037.0,030.4,17.3,0000.0,0006.63,0027.34,0003.84
2023-10-24 16:02:00,SystemResetWarning,0826.6,5.01,000.00,028.7,027.3,000.0,037.0,030.4,17.2,0000.0,0006.62,0028.47,0003.84
2023-10-24 16:03:00,SystemResetWarning,0826.6,5.00,000.00,028.7,027.3,000.0,037.0,030.4,17.3,0000.0,0006.68,0029.50,0003.86
2023-10-24 16:04:00,SystemResetWarning,0826.6,5.00,000.00,028.7,027.4,000.0,037.0,030.4,17.3,0000.0,0006.74,0029.85,0003.89
2023-10-24 16:05:00,SystemResetWarning,0826.6,5.00,000.00,028.7,027.4,000.0,037.0,030.4,17.5,0000.0,0006.85,0030.63,0003.91
2023-10-24 16:06:00,SystemResetWarning,0826.5,5.00,000.00,028.7,027.4,000.0,037.1,030.4,17.5,0000.0,0006.94,0031.31,0003.95
2023-10-24 16:07:00,SystemResetWarning,0826.5,4.99,000.00,028.7,027.4,000.0,037.1,030.4,17.6,0000.0,0007.01,0031.73,0003.98
2023-10-24 16:08:00,SystemResetWarning,0826.5,4.99,000.00,028.7,027.4,000.0,037.1,030.4,17.7,0000.0,0007.05,0031.75,0004.02
2023-10-24 16:09:00,SystemResetWarning,0826.5,5.01,000.00,028.8,027.4,000.0,037.1,030.4,17.6,0000.0,0006.94,0030.77,0004.06
2023-10-24 16:10:00,SystemResetWarning,0826.5,5.01,000.00,028.8,027.5,000.0,037.1,030.5,17.5,0000.0,0006.96,0030.71,0004.09
2023-10-24 16:11:00,SystemResetWarning,0826.5,5.01,000.00,028.8,027.5,000.0,037.1,030.5,17.7,0000.0,0007.01,0031.54,0004.14
2023-10-24 16:12:00,SystemResetWarning,0826.4,5.01,000.00,028.8,027.5,000.0,037.1,030.5,17.8,0000.0,0007.14,0032.65,0004.19
2023-10-24 16:13:00,SystemResetWarning,0826.4,4.99,000.00,028.8,027.5,000.0,037.1,030.4,17.7,0000.0,0007.14,0032.23,0004.23
2023-10-24 16:14:00,SystemResetWarning,0826.3,4.99,000.00,028.8,027.5,000.0,037.1,030.5,17.8,0000.0,0007.19,0032.47,0004.27
2023-10-24 16:15:00,SystemResetWarning,0826.4,5.00,000.00,028.8,027.5,000.0,037.2,030.5,17.8,0000.0,0007.30,0033.07,0004.28
2023-10-24 16:16:00,SystemResetWarning,0826.4,5.01,000.00,028.8,027.5,000.0,037.2,030.5,17.8,0000.0,0007.38,0031.35,0004.30
2023-10-24 16:17:00,SystemResetWarning,0826.4,5.01,000.00,028.9,027.5,000.0,037.2,030.5,17.7,0000.0,0007.37,0030.50,0004.30
2023-10-24 16:18:00,SystemResetWarning,0826.4,5.00,000.00,028.9,027.6,000.0,037.2,030.5,17.7,0000.0,0007.39,0030.67,0004.30
2023-10-24 16:19:00,SystemResetWarning,0826.4,4.98,000.00,028.9,027.6,000.0,037.2,030.5,17.8,0000.0,0007.25,0029.40,0004.27
2023-10-24 16:20:00,SystemResetWarning,0826.4,5.01,000.00,028.9,027.6,000.0,037.2,030.6,17.8,0000.0,0007.22,0029.95,0004.24
2023-10-24 16:21:00,SystemResetWarning,0826.4,5.01,000.00,028.9,027.6,000.0,037.2,030.6,17.7,0000.0,0007.24,0030.35,0004.23
2023-10-24 16:22:00,SystemResetWarning,0826.4,5.00,000.00,028.9,027.6,000.0,037.2,030.6,17.7,0000.0,0007.22,0030.41,0004.21
2023-10-24 16:23:00,SystemResetWarning,0826.4,4.99,000.00,028.9,027.6,000.0,037.2,030.6,17.7,0000.0,0007.23,0031.08,0004.20
2023-10-24 16:24:00,SystemResetWarning,0826.4,4.99,000.00,028.9,027.6,000.0,037.3,030.6,17.6,0000.0,0007.35,0031.53,0004.19
2023-10-24 16:25:00,SystemResetWarning,0826.4,5.00,000.00,028.9,027.6,000.0,037.3,030.6,17.5,0000.0,0007.35,0031.62,0004.17
2023-10-24 16:26:00,SystemResetWarning,0826.4,5.00,000.00,028.9,027.6,000.0,037.3,030.6,17.4,0000.0,0007.30,0032.75,0004.17
2023-10-24 16:27:00,SystemResetWarning,0826.4,5.00,000.00,029.0,027.7,000.0,037.3,030.6,17.2,0000.0,0007.25,0033.56,0004.16
2023-10-24 16:28:00,SystemResetWarning,0826.4,5.00,000.00,029.0,027.7,000.0,037.3,030.7,17.1,0000.0,0007.29,0033.90,0004.15
2023-10-24 16:29:00,SystemResetWarning,0826.4,5.00,000.00,029.0,027.7,000.0,037.3,030.7,17.0,0000.0,0007.35,0033.03,0004.16
2023-10-24 16:30:00,SystemResetWarning,0826.4,5.00,000.00,029.0,027.7,000.0,037.3,030.7,17.0,0000.0,0007.42,0033.18,0004.17
2023-10-24 16:31:00,SystemResetWarning,0826.4,4.99,000.00,029.0,027.7,000.0,037.3,030.7,17.0,0000.0,0007.47,0033.62,0004.20
2023-10-24 16:32:00,SystemResetWarning,0826.4,5.00,000.00,029.0,027.7,000.0,037.3,030.7,17.1,0000.0,0007.47,0033.58,0004.22
2023-10-24 16:33:00,SystemResetWarning,0826.4,5.01,000.00,029.0,027.7,000.0,037.3,030.7,17.1,0000.0,0007.39,0032.75,0004.24
2023-10-24 16:34:00,SystemResetWarning,0826.4,5.01,000.00,029.0,027.7,000.0,037.4,030.7,17.1,0000.0,0007.28,0032.04,0004.24
2023-10-24 16:35:00,SystemResetWarning,0826.3,5.00,000.00,029.0,027.7,000.0,037.4,030.7,17.1,0001.7,0007.08,0031.24,0004.23
2023-10-24 16:36:00,SystemResetWarning,0826.4,4.99,000.00,029.0,027.7,000.0,037.4,030.7,17.1,0002.7,0007.01,0030.77,0004.23
2023-10-24 16:37:00,SystemResetWarning,0826.4,5.01,000.00,029.0,027.7,000.0,037.4,030.7,17.1,0001.7,0007.01,0029.41,0004.23
2023-10-24 16:38:00,SystemResetWarning,0826.4,5.00,000.00,029.1,027.7,000.0,037.4,030.7,17.0,0000.0,0006.94,0026.82,0004.23
2023-10-24 16:39:00,SystemResetWarning,0826.4,5.00,000.00,029.1,027.8,000.0,037.4,030.8,17.1,0000.0,0006.96,0027.33,0004.23
2023-10-24 16:40:00,SystemResetWarning,0826.4,5.00,000.00,029.1,027.8,000.0,037.4,030.7,17.2,0000.0,0006.91,0027.58,0004.24
2023-10-24 16:41:00,SystemResetWarning,0826.4,5.00,000.00,029.1,027.8,000.0,037.4,030.8,17.3,0000.0,0006.82,0027.15,0004.23
2023-10-24 16:42:00,SystemResetWarning,0826.4,5.00,000.00,029.1,027.8,000.0,037.4,030.8,18.0,0000.0,0006.75,0027.14,0004.22
2023-10-24 16:43:00,SystemResetWarning,0826.3,5.00,000.00,029.1,027.8,000.0,037.4,030.8,18.3,0000.0,0006.77,0027.55,0004.20
2023-10-24 16:44:00,SystemResetWarning,0826.3,5.00,000.00,029.1,027.8,000.0,037.4,030.8,18.4,0000.0,0006.82,0028.68,0004.17
2023-10-24 16:45:00,SystemResetWarning,0826.3,5.00,000.00,029.1,027.8,000.0,037.5,030.8,18.4,0000.0,0006.87,0028.56,0004.17
2023-10-24 16:46:00,SystemResetWarning,0826.3,5.00,000.00,029.1,027.8,000.0,037.5,030.8,18.4,0000.0,0006.94,0028.77,0004.16
2023-10-24 16:47:00,SystemResetWarning,0826.4,5.00,000.00,029.1,027.8,000.0,037.5,030.8,18.5,0000.0,0006.91,0029.03,0004.15
2023-10-24 16:48:00,SystemResetWarning,0826.4,5.00,000.00,029.2,027.8,000.0,037.5,030.8,18.5,0000.0,0006.91,0028.75,0004.15
2023-10-24 16:49:00,SystemResetWarning,0826.4,5.00,000.00,029.2,027.8,000.0,037.5,030.8,18.4,0000.0,0006.92,0030.50,0004.14
2023-10-24 16:50:00,SystemResetWarning,0826.4,5.00,000.00,029.2,027.9,000.0,037.5,030.8,18.4,0000.0,0006.78,0029.30,0004.12
2023-10-24 16:51:00,SystemResetWarning,0826.3,5.00,000.00,029.2,027.9,000.0,037.5,030.9,18.4,0000.0,0006.72,0028.25,0004.09
2023-10-24 16:52:00,SystemResetWarning,0826.3,5.00,000.00,029.2,027.9,000.0,037.5,030.9,18.5,0000.0,0006.77,0027.85,0004.08
2023-10-24 16:53:00,SystemResetWarning,0826.3,5.00,000.00,029.2,027.9,000.0,037.5,030.9,18.5,0000.0,0006.75,0026.63,0004.06
2023-10-24 16:54:00,SystemResetWarning,0826.4,5.00,000.00,029.2,027.9,000.0,037.5,030.9,18.6,0000.0,0006.63,0025.73,0004.04
2023-10-24 16:55:00,SystemResetWarning,0826.4,5.00,000.00,029.2,027.9,000.0,037.5,030.9,18.4,0000.0,0006.52,0025.27,0004.02
2023-10-24 16:56:00,SystemResetWarning,0826.4,5.00,000.00,029.2,027.9,000.0,037.5,030.9,18.4,0000.0,0006.47,0025.49,0004.00
2023-10-24 16:57:00,SystemResetWarning,0826.4,5.00,000.00,029.2,027.9,000.0,037.6,030.9,18.4,0000.0,0006.41,0025.62,0003.98
2023-10-24 16:58:00,SystemResetWarning,0826.4,4.99,000.00,029.2,027.9,000.0,037.6,030.9,18.5,0000.0,0006.40,0026.43,0003.95
2023-10-24 16:59:00,SystemResetWarning,0826.4,5.00,000.00,029.2,027.9,000.0,037.6,030.9,18.6,0000.0,0006.33,0026.18,0003.93
